www.pogodaiklimat.ru

Погода и климат >> Архив погоды >> Парагвай >> Пилар


ПОГОДА в Пиларе

  • Прогноз погоды в Пиларе
  • Монитор погоды в Пиларе

АРХИВ ПОГОДЫ в Пиларе

Время (UTC), дата Ветер
(напр.,м/с)
 
Видим.   Явления Облачность Т
(С)
Тd
(С)
f
(%)
Тe
(С)
Тes
(С)
Комфортность P
(гПа)
Po
(гПа)
Тmin
(С)
Tmax
(С)
R
(мм)
R24
(мм)
S
(см)
18 12.01 С 4 20 км 8/5 1200 м
[Cu med, cong Ac cast]
+32.2 +23.2 59 +43 +46 опасность
перегрева
1010.9 1004.4
21 12.01 С 1 20 км 9/5 600 м
[Frnb Ac und]
+32.0 +21.9 55 +41 +41 опасность
перегрева
1008.9 1002.4
00 13.01 ЮВ 3 20 км зарница 8/8 600 м
[Cb cap]
+26.0 +23.1 84 +35 +35 очень
душно
1009.9 1003.2 +32.2
03 13.01 ЮВ 4 20 км зарница 9/9 600 м
[Cb cap]
+25.2 +23.4 90 +34 +34 очень
душно
1010.4 1003.0
06 13.01 0 н/о
09 13.01 штиль 0 20 км 6/4 800 м
[Sc Ac As]
+25.6 +20.2 72 +32 +32 очень
душно
1012.0 1005.3
18 13.01 С 4 20 км 8/4 1200 м
[Cu med, cong Ac lent]
+32.6 +23.1 57 +43 +46 опасность
перегрева
1010.7 1004.2
21 13.01 Ю 2 20 км 6/4 600 м
[Cu Sc Ci]
+27.6 +23.8 80 +38 +40 очень
душно
1008.3 1001.7
06 14.01 ЮВ 3 20 км 3/0 2000 м
[Ac As]
+25.0 +21.8 82 +32 +32 очень
душно
1011.1 1004.4
09 14.01 СВ 4 20 км 5/0 2000 м
[Ac As]
+25.0 +21.8 82 +32 +32 очень
душно
1010.6 1003.9
12 14.01 СВ 1 20 км 9/5 600 м
[Frnb Ac As]
+26.2 +24.5 90 +37 +39 очень
душно
1010.9 1004.2 +24.0 2
15 14.01 С 3 20 км 9/5 600 м
[Frnb Ac As]
+29.0 +26.2 85 +44 +48 опасность
перегрева
1011.1 1004.5
18 14.01 СЗ 2 20 км 9/4 800 м
[Sc Ac und Cs]
+31.2 +25.4 71 +45 +51 опасность
перегрева
1012.2 1005.6
21 14.01 штиль 0 20 км 9/4 800 м
[Cu med, cong Ac und Cs]
+28.2 +25.1 83 +41 +42 опасность
перегрева
1009.0 1002.4
00 15.01 ЮВ 1 20 км 4/0 2000 м
[Ac As]
+27.2 +24.2 84 +38 +38 очень
душно
1009.6 1003.0 +32.0
09 15.01 СВ 3 20 км 4/1 800 м
[Cu Sc Ac As]
+26.0 +24.6 92 +37 +37 очень
душно
1008.6 1001.9
12 15.01 СВ 3 20 км 4/3 800 м
[Cb calv Ac As]
+26.0 +24.6 92 +37 +41 очень
душно
1008.6 1001.9 +25.0
15 15.01 СВ 5 20 км 6/3 800 м
[Cb calv Ac As]
+32.6 +24.7 63 +46 +52 опасность
перегрева
1009.7 1003.1
18 15.01 ЮЗ 5 20 км 6/4 1200 м
[Cu med, cong Ac lent]
+35.0 +23.7 52 +46 +50 опасность
перегрева
1008.6 1002.1
21 15.01 ЮЗ 2 20 км 6/4 1200 м
[Cu med, cong Ac lent]
+34.2 +23.9 55 +46 +47 опасность
перегрева
1006.1 999.7
00 16.01 ЮЗ 4 20 км зарница 9/9 600 м
[Cb cap]
+29.0 +24.7 78 +41 +41 опасность
перегрева
1009.9 1003.3 +35.0
03 16.01 ЮЗ 4 20 км 5/0 2000 м
[Ac As]
+27.0 +24.1 84 +37 +37 очень
душно
1008.5 1001.9
06 16.01 ЮВ 2 20 км 3/0 2000 м
[Ac As]
+26.4 +24.4 89 +37 +37 очень
душно
1008.6 1003.0
09 16.01 ЮВ 2 20 км 9/5 800 м
[Sc Ac As]
+25.4 +23.3 88 +34 +34 очень
душно
1009.9 1003.2
12 16.01 ЮВ 4 20 км 6/4 1200 м
[Sc Ac lent]
+27.6 +23.9 80 +38 +41 очень
душно
1010.7 1004.1 +25.4
15 16.01 С 2 20 км 6/4 1200 м
[Sc Ac lent]
+32.6 +24.7 63 +46 +55 опасность
перегрева
1010.4 1003.9
18 16.01 СЗ 4 20 км 4/3 1200 м
[Cu med, cong Ci]
+35.0 +25.2 57 +49 +57 опасность
перегрева
1009.1 1002.6
21 16.01 штиль 0 20 км 8/4 1200 м
[Cb calv Ac trans Ci fib]
+31.0 +25.5 73 +46 +47 опасность
перегрева
1007.0 1000.5
00 17.01 С 2 20 км зарница 4/4 600 м
[Cb cap]
+28.2 +26.6 91 +44 +44 опасность
перегрева
1007.8 1001.2 +35.0
03 17.01 С 2 20 км 3/0 2000 м
[Ac und Ci fib]
+27.0 +25.6 92 +40 +40 очень
душно
1008.3 1001.7
06 17.01 С 4 20 км 3/0 2000 м
[Ac As]
+26.4 +24.4 89 +37 +37 очень
душно
1008.3 1001.7
09 17.01 СВ 2 20 км 4/0 2000 м
[Ac As]
+27.2 +24.2 84 +38 +38 очень
душно
1008.8 1002.2
12 17.01 СВ 7 20 км в посл. час ливневой дождь 4/0 2000 м
[Ac trans]
+31.2 +23.7 64 +42 +44 опасность
перегрева
1008.8 1002.2 +25.0 3
15 17.01 С 4 20 км 5/0 2000 м
[Ac trans Cs]
+34.4 +23.8 54 +46 +55 опасность
перегрева
1009.9 1003.2
18 17.01 С 6 20 км 5/1 1200 м
[Cu hum Cs]
+36.0 +23.1 47 +46 +52 опасность
перегрева
1007.8 1001.4
21 17.01 СВ 2 20 км 5/3 1200 м
[Cb calv Cs]
+35.4 +25.0 55 +49 +51 опасность
перегрева
1006.8 1000.3
00 18.01 СВ 1 20 км 3/0 2000 м
[Ac As]
+32.4 +27.7 76 +52 +52 опасность
перегрева
1007.7 1001.2 +36.0
03 18.01 ЮВ 7 5000 м ливневой дождь, в посл. час гроза 10/10 420 м
[Cb cap]
+25.4 +23.3 88 +34 +34 очень
душно
1008.1 1001.4
06 18.01 СЗ 4 5000 м гроза, ливневой дождь 10/10 600 м
[Cb cap]
+25.4 +23.3 88 +34 +34 очень
душно
1008.5 1001.8 20
09 18.01 С 3 20 км зарница {гроза} 10/9 500 м
[Cb cap]
+25.0 +23.3 90 +33 +33 очень
душно
1009.2 1002.5 16
12 18.01 штиль 0 10 км дождь {гроза} 10/10 300 м
[Sc]
+22.8 +21.6 93 +30 +30 очень
душно
1011.2 1004.5 +22.8 16
15 18.01 Ю 5 20 км {дождь, гроза} 10/10 300 м
[Sc]
+22.8 +21.6 93 +30 +30 очень
душно
1013.1 1006.3 2
18 18.01 Ю 3 20 км {дождь} 10/10 300 м
[Sc]
+22.0 +20.4 91 +28 +28 душно 1013.4 1006.6 0.5
21 18.01 Ю 4 20 км 10/10 300 м
[Sc]
+22.0 +20.4 91 +28 +28 душно 1013.2 1006.4
00 19.01 Ю 5 20 км 10/10 420 м
[Sc]
+21.6 +20.4 93 +27 +27 душно 1014.1 1007.3 +32.4
03 19.01 Ю 5 20 км 10/10 420 м
[Sc]
+20.4 +18.4 88 +24 +24 комфорт 1014.9 1008.1
09 19.01 ЮЗ 4 20 км 10/10 300 м
[St]
+19.2 +17.3 89 +21 +21 комфорт 1016.0 1009.2
12 19.01 Ю 5 20 км 10/10 300 м
[Sc]
+19.2 +17.3 89 +21 +21 комфорт 1017.0 1010.1 +18.8 2

 

Местоположение метеостанции Пилар (Парагвай): широта -26.85 долгота -58.31 высота над уровнем моря 56 м.

В архиве по умолчанию представлена погода в Пиларе за последнюю неделю. Архивные данные за месяц целиком и за предыдущие месяцы, начиная с января 2011 года, Вы можете получить, выбрав интересующий диапазон дат из раскрывающегося списка и нажав кнопку "Ввод!".


*Определитесь, кто Вы:
робот инопланетянин человек

Внимание! Время в таблицах - всемирное. Для получения местного времени необходимо прибавить поправку, которая равна -4 ч.

Смотрите также архив погоды в соседних городах и на ближайших метеорологических станциях:

Погода в Формосе (Аргентина) (73 км)
Погода в Корриентесе (Аргентина) (80 км)
Погода в Ресистенсии (Аргентина) (99 км)
Погода в Сан Хуан Батистута (Парагвай) (117 км)
Погода в Куйкуйо (Парагвай) (150 км)
Погода в Парагуари (Парагвай) (180 км)
Погода в Асунсьоне (Парагвай) (195 км)
Погода в Каасапе (Парагвай) (209 км)
Погода в Пресиденсиа-Роке-Саэнс-Пеньи (Аргентина) (216 км)
Погода в Вильяррике (Парагвай) (224 км)

Пояснения к столбцам:

Ветер - указаны скорость ветра в м/с - средняя за 10 мин, порывы в срок и между сроками (в фигурных скобках) и направление, откуда дует ветер: С - северный, СВ - северо-восточный, В - восточный, ЮВ - юго-восточный, Ю - южный, ЮЗ - юго-западный, З - западный, СЗ - северо-западный.
Видимость - горизонтальная дальность видимости в метрах или километрах. При видимости от 1 до 10 км при отсутствии осадков обычно наблюдается дымка, при ухудшении видимости до 1 км и менее - туман. В сухую погоду видимость может ухудшаться дымом, пылью или мглою.
Явления - указаны атмосферные явления, наблюдавшиеся в срок или в последний час перед сроком; фигурными скобками обозначены явления, наблюдавшиеся между сроками (за 1-3 часа до срока); квадратными скобками обозначены град или гололедные отложения с указанием их диаметра в мм.
Облачность - указаны через наклонную черту общая и нижняя облачность в баллах и высота нижней границы облаков в метрах; квадратными скобками обозначены формы облаков: Ci - перистые, Cs - перисто-слоистые, Cc - перисто-кучевые, Ac - высококучевые, As - высокослоистые, Sc - слоисто-кучевые, Ns - слоисто-дождевые, Cu - кучевые, Cb - кучево-дождевые. Подробнее классификацию облаков см. в Атласе облаков (PDF).
T - Температура воздуха - температура, измеренная на высоте 2 м над землей.
Td - Температура точки росы - температура, при понижении до которой содержащийся в воздухе водяной пар достигнет насыщения.
f - Относительная влажность воздуха - влажноcть воздуха, измеренная на высоте 2 м над землей.
Te - Эффективная температура - температура, которую ощущает одетый по сезону человек в тени. Характеристика душности погоды. При расчете учитывается влияние влажности воздуха и скорости ветра на теплоощущения человека.
Tes - Эффективная температура на солнце - температура, которую ощущает человек, с поправкой на солнечный нагрев. Характеристика знойности погоды. Зависит от высоты солнца над горизонтом, облачности и скорости ветра. Ночью, в пасмурную погоду, а также при ветре 12 м/с и более поправка равна нулю.
P - Атмосферное давление - приведенное к уровню моря атмосферное давление.
Po - Атмосферное давление - измеренное на уровне метеостанции атмосферное давление.
Tmin - Минимальная температура - минимум температуры воздуха на высоте 2 м над землей.
Tmax - Максимальная температура - максимум температуры воздуха на высоте 2 м над землей.
R - Количество осадков - Количество выпавших осадков за период времени, мм. При наведении курсора мыши на число - период времени, за который выпало указанное количество осадков.
R24 - Количество осадков - Количество выпавших осадков за 24 часа, мм.
S - Снежный покров - Высота снежного покрова, см. При наведении курсора мыши на число - состояние снежного покрова и степень покрытия местности в баллах.